When you browse on this site, cookies collect data to enhance your experience and personalize the content and advertising you see.
Visit our Privacy Policy to learn more. By continuing to use the site, you agree to this use of cookies and data.
  • în România
  • Lista ţărilor
  • Pe 7 zile
  • Temperatura apei
  • Hartă satelitară
  • Meteo pe hartă
  • Widget-uri
  • user-avatar
    Intrare

    Meteo pe oră la Energetik

    Astăzi, 22 Februarie, Vineri

    Timp Temperatura Precipitaţii Vânt Presiune Umiditate
    00:00 -2°C° 0.4 mm 6 m/s 747 mmHg 92%
    01:00 -2°C° 0.2 mm 6 m/s 747 mmHg 92%
    02:00 -2°C° 0.2 mm 6 m/s 746 mmHg 92%
    03:00 -2°C° 0.2 mm 6 m/s 746 mmHg 91%
    04:00 -1°C° 0.3 mm 5 m/s 746 mmHg 92%
    05:00 -2°C° 0.3 mm 5 m/s 746 mmHg 92%
    06:00 -2°C° 0.3 mm 4 m/s 746 mmHg 92%
    07:00 -4°C° 0 mm 4 m/s 747 mmHg 92%
    08:00 -5°C° 0 mm 4 m/s 747 mmHg 92%
    09:00 -8°C° 0 mm 4 m/s 748 mmHg 91%
    10:00 -8°C° 0 mm 4 m/s 748 mmHg 91%
    11:00 -8°C° 0 mm 5 m/s 749 mmHg 90%
    12:00 -8°C° 0 mm 5 m/s 749 mmHg 89%
    13:00 -7°C° 0.1 mm 5 m/s 750 mmHg 88%
    14:00 -8°C° 0.1 mm 6 m/s 750 mmHg 87%
    15:00 -8°C° 0.1 mm 6 m/s 751 mmHg 86%
    16:00 -8°C° 0.1 mm 6 m/s 752 mmHg 87%
    17:00 -9°C° 0.1 mm 6 m/s 752 mmHg 88%
    18:00 -9°C° 0.1 mm 6 m/s 753 mmHg 89%
    19:00 -9°C° 0.1 mm 6 m/s 754 mmHg 90%
    20:00 -9°C° 0.1 mm 6 m/s 754 mmHg 90%
    21:00 -9°C° 0.1 mm 6 m/s 755 mmHg 90%
    22:00 -10°C° 0.1 mm 6 m/s 755 mmHg 90%
    23:00 -10°C° 0.1 mm 5 m/s 756 mmHg 91%

    Mâine, 23 Februarie, Sâmbătă

    Timp Temperatura Precipitaţii Vânt Presiune Umiditate
    00:00 -10°C° 0.1 mm 5 m/s 756 mmHg 91%
    01:00 -11°C° 0 mm 5 m/s 757 mmHg 92%
    02:00 -12°C° 0 mm 5 m/s 757 mmHg 93%
    03:00 -11°C° 0 mm 4 m/s 758 mmHg 94%
    04:00 -11°C° 0 mm 4 m/s 758 mmHg 94%
    05:00 -11°C° 0 mm 4 m/s 759 mmHg 95%
    06:00 -10°C° 0 mm 3 m/s 759 mmHg 95%
    07:00 -11°C° 0 mm 4 m/s 760 mmHg 94%
    08:00 -10°C° 0 mm 4 m/s 761 mmHg 93%
    09:00 -10°C° 0 mm 4 m/s 761 mmHg 92%
    10:00 -9°C° 0 mm 4 m/s 762 mmHg 91%
    11:00 -10°C° 0 mm 5 m/s 762 mmHg 89%
    12:00 -10°C° 0 mm 5 m/s 763 mmHg 87%
    13:00 -10°C° 0 mm 5 m/s 763 mmHg 87%
    14:00 -8°C° 0 mm 4 m/s 764 mmHg 87%
    15:00 -8°C° 0 mm 4 m/s 764 mmHg 87%
    16:00 -9°C° 0 mm 4 m/s 764 mmHg 88%
    17:00 -9°C° 0 mm 3 m/s 765 mmHg 90%
    18:00 -9°C° 0 mm 2 m/s 765 mmHg 91%
    19:00 -9°C° 0 mm 2 m/s 765 mmHg 92%
    20:00 -10°C° 0 mm 2 m/s 765 mmHg 93%
    21:00 -10°C° 0 mm 2 m/s 766 mmHg 94%
    22:00 -12°C° 0 mm 2 m/s 766 mmHg 94%
    23:00 -13°C° 0 mm 2 m/s 766 mmHg 95%

    Poimâine, 24 Februarie, Duminică

    Timp Temperatura Precipitaţii Vânt Presiune Umiditate
    00:00 -13°C° 0 mm 2 m/s 766 mmHg 95%
    01:00 -14°C° 0 mm 2 m/s 766 mmHg 95%
    02:00 -15°C° 0 mm 2 m/s 766 mmHg 95%
    03:00 -16°C° 0 mm 2 m/s 766 mmHg 95%
    04:00 -16°C° 0 mm 2 m/s 766 mmHg 95%
    05:00 -16°C° 0 mm 2 m/s 766 mmHg 95%
    06:00 -16°C° 0 mm 2 m/s 766 mmHg 95%
    07:00 -15°C° 0 mm 2 m/s 766 mmHg 95%
    08:00 -15°C° 0 mm 2 m/s 766 mmHg 94%
    09:00 -15°C° 0 mm 2 m/s 766 mmHg 94%
    10:00 -14°C° 0 mm 2 m/s 766 mmHg 92%
    11:00 -13°C° 0 mm 3 m/s 765 mmHg 91%
    12:00 -12°C° 0 mm 3 m/s 765 mmHg 90%
    13:00 -12°C° 0 mm 3 m/s 765 mmHg 90%
    14:00 -12°C° 0 mm 3 m/s 764 mmHg 90%
    15:00 -12°C° 0 mm 3 m/s 764 mmHg 90%
    16:00 -13°C° 0 mm 3 m/s 764 mmHg 91%
    17:00 -14°C° 0 mm 3 m/s 764 mmHg 92%
    18:00 -15°C° 0 mm 3 m/s 763 mmHg 93%
    19:00 -14°C° 0 mm 3 m/s 763 mmHg 93%
    20:00 -14°C° 0 mm 3 m/s 763 mmHg 93%
    21:00 -15°C° 0 mm 4 m/s 762 mmHg 93%
    22:00 -13°C° 0.1 mm 3 m/s 762 mmHg 94%
    23:00 -13°C° 0.1 mm 3 m/s 762 mmHg 94%

    25 Februarie, Luni

    Timp Temperatura Precipitaţii Vânt Presiune Umiditate
    00:00 -13°C° 0.1 mm 3 m/s 761 mmHg 95%
    01:00 -13°C° 0 mm 3 m/s 761 mmHg 95%
    02:00 -13°C° 0 mm 3 m/s 761 mmHg 95%
    03:00 -13°C° 0 mm 3 m/s 760 mmHg 96%
    04:00 -13°C° 0 mm 3 m/s 760 mmHg 96%
    05:00 -13°C° 0 mm 3 m/s 759 mmHg 96%
    06:00 -12°C° 0 mm 3 m/s 759 mmHg 96%
    07:00 -12°C° 0 mm 3 m/s 758 mmHg 96%
    08:00 -10°C° 0 mm 3 m/s 758 mmHg 96%
    09:00 -10°C° 0 mm 3 m/s 758 mmHg 96%
    10:00 -9°C° 0 mm 3 m/s 757 mmHg 96%
    11:00 -9°C° 0 mm 4 m/s 756 mmHg 95%
    12:00 -7°C° 0 mm 4 m/s 756 mmHg 95%
    13:00 -7°C° 0.1 mm 4 m/s 755 mmHg 95%
    14:00 -7°C° 0.1 mm 5 m/s 754 mmHg 94%
    15:00 -6°C° 0.1 mm 5 m/s 753 mmHg 94%
    16:00 -6°C° 0.1 mm 5 m/s 752 mmHg 94%
    17:00 -6°C° 0.1 mm 5 m/s 751 mmHg 94%
    18:00 -6°C° 0.1 mm 5 m/s 750 mmHg 94%
    19:00 -5°C° 0.2 mm 5 m/s 749 mmHg 94%
    20:00 -5°C° 0.2 mm 5 m/s 749 mmHg 94%
    21:00 -4°C° 0.2 mm 5 m/s 748 mmHg 94%
    22:00 -4°C° 0.2 mm 5 m/s 747 mmHg 94%
    23:00 -3°C° 0.2 mm 4 m/s 746 mmHg 94%

    26 Februarie, Marţi

    Timp Temperatura Precipitaţii Vânt Presiune Umiditate
    00:00 -3°C° 0.2 mm 4 m/s 745 mmHg 95%
    01:00 -2°C° 0.3 mm 4 m/s 745 mmHg 95%
    02:00 -1°C° 0.3 mm 3 m/s 745 mmHg 95%
    03:00 -1°C° 0.3 mm 3 m/s 744 mmHg 96%
    04:00 -2°C° 0.1 mm 3 m/s 744 mmHg 96%
    05:00 -2°C° 0.1 mm 3 m/s 744 mmHg 96%
    06:00 -2°C° 0.1 mm 2 m/s 744 mmHg 96%
    07:00 -3°C° 0 mm 2 m/s 744 mmHg 95%
    08:00 -3°C° 0 mm 2 m/s 744 mmHg 95%
    09:00 -3°C° 0 mm 2 m/s 744 mmHg 95%
    10:00 -2°C° 0 mm 2 m/s 743 mmHg 96%
    11:00 -2°C° 0 mm 2 m/s 743 mmHg 97%
    12:00 -1°C° 0 mm 2 m/s 743 mmHg 98%
    13:00 -1°C° 0.1 mm 2 m/s 743 mmHg 97%
    14:00 -1°C° 0.1 mm 2 m/s 743 mmHg 96%
    15:00 -1°C° 0.1 mm 2 m/s 743 mmHg 95%
    16:00 -2°C° 0 mm 2 m/s 743 mmHg 95%
    17:00 -3°C° 0 mm 2 m/s 743 mmHg 95%
    18:00 -1°C° 0 mm 1 m/s 743 mmHg 96%
    19:00 -2°C° 0 mm 1 m/s 743 mmHg 95%
    20:00 -2°C° 0 mm 1 m/s 743 mmHg 95%
    21:00 -3°C° 0 mm 1 m/s 743 mmHg 95%
    22:00 -3°C° 0 mm 1 m/s 743 mmHg 95%
    23:00 -6°C° 0 mm 2 m/s 743 mmHg 95%

    27 Februarie, Miercuri

    Timp Temperatura Precipitaţii Vânt Presiune Umiditate
    00:00 -7°C° 0 mm 2 m/s 743 mmHg 95%
    01:00 -7°C° 0 mm 2 m/s 743 mmHg 95%
    02:00 -7°C° 0 mm 2 m/s 743 mmHg 95%
    03:00 -7°C° 0 mm 2 m/s 743 mmHg 96%
    04:00 -7°C° 0.1 mm 2 m/s 743 mmHg 96%
    05:00 -6°C° 0.1 mm 2 m/s 743 mmHg 96%
    06:00 -5°C° 0.1 mm 2 m/s 744 mmHg 97%
    07:00 -5°C° 0.1 mm 2 m/s 744 mmHg 96%
    08:00 -6°C° 0.1 mm 3 m/s 744 mmHg 96%
    09:00 -5°C° 0.1 mm 3 m/s 745 mmHg 95%
    10:00 -4°C° 0 mm 3 m/s 745 mmHg 95%
    11:00 -4°C° 0 mm 3 m/s 745 mmHg 95%
    12:00 -2°C° 0 mm 3 m/s 745 mmHg 94%
    13:00 -2°C° 0.1 mm 3 m/s 745 mmHg 93%
    14:00 -2°C° 0.1 mm 3 m/s 746 mmHg 93%
    15:00 -2°C° 0.1 mm 3 m/s 746 mmHg 92%
    16:00 -2°C° 0.1 mm 3 m/s 746 mmHg 93%
    17:00 -4°C° 0.1 mm 3 m/s 746 mmHg 93%
    18:00 -4°C° 0.1 mm 2 m/s 746 mmHg 94%
    19:00 -4°C° 0 mm 2 m/s 747 mmHg 94%
    20:00 -5°C° 0 mm 2 m/s 747 mmHg 94%
    21:00 -5°C° 0 mm 2 m/s 747 mmHg 95%
    22:00 -6°C° 0 mm 2 m/s 747 mmHg 95%
    23:00 -6°C° 0 mm 2 m/s 747 mmHg 95%
    Arată mai mult